Regional Weather Roundup
Issued by NWS

Home | Current Version | Previous Version | Graphics & Text | Print | Product List | Glossary Off
Versions: 1 2 3 4 5 6 7 8 9 10 11 12 13 14 15 16 17 18 19 20 21 22 23 24 25 26 27 28 29 30 31 32 33 34 35 36 37 38 39 40 41 42 43 44 45 46 47 48 49 50

827
ASUS43 KTOP 252208
RWRKS

WEATHER ROUNDUP FOR KANSAS
NATIONAL WEATHER SERVICE GOODLAND KS
500 PM CDT MON JUL 25 2016

NOTE:  "FAIR" INDICATES FEW OR NO CLOUDS BELOW 12,000 FEET WITH NO
SIGNIFICANT WEATHER AND/OR OBSTRUCTIONS TO VISIBILITY.

KSZ001>006-013>018-027>032-041>047-252300-
NORTHWEST KANSAS

CITY           SKY/WX    TMP DP  RH WIND       PRES   REMARKS
GOODLAND       MOSUNNY   83  63  50 SE12      30.12F
HAYS           MOSUNNY   84  64  51 E10       30.05F
HILL CITY      MOSUNNY   87  66  49 VRB7      30.06F
RUSSELL        SUNNY     85  67  54 E9        30.04F
$$

KSZ061>065-074>080-084>089-252300-
SOUTHWEST KANSAS

CITY           SKY/WX    TMP DP  RH WIND       PRES   REMARKS
DODGE CITY     SUNNY     87  64  46 NE7       30.06F
ELKHART          N/A     87  67  51 E7          N/A
GARDEN CITY    MOSUNNY   84  66  54 E7        30.08F
GREAT BEND     MOSUNNY   84  64  51 E7        30.04F
LIBERAL        SUNNY     86  64  48 E7        30.09F
PRATT          MOSUNNY   82  65  57 E3        30.04F
$$

KSZ066>073-081>083-090>101-252300-
SOUTHEAST KANSAS

CITY           SKY/WX    TMP DP  RH WIND       PRES   REMARKS
CHANUTE        CLOUDY    82  72  71 N8        30.01S
COFFEYVILLE    CLOUDY    86  72  62 N12       29.97R
HUTCHINSON     CLOUDY    83  69  62 N9        30.04F
MEDICINE LODGE   N/A     91  65  41 NE5       29.98F
NEWTON         CLOUDY    79  72  78 N14       30.05F
PARSONS          N/A    N/A N/A N/A MISG      30.01S
WICHITA INTL   PTSUNNY   87  69  54 N10       30.00F
WICHITA JABRA  CLOUDY    83  72  69 NE14      30.02S
WICHITA MCCONL PTSUNNY   87  67  52 E9        30.01F
WINFIELD       CLOUDY    86  70  58 VRB6      29.99F
$$

KSZ007>012-019>026-033>040-048>060-102>105-252300-
NORTHEAST KANSAS

CITY           SKY/WX    TMP DP  RH WIND       PRES   REMARKS
CONCORDIA      SUNNY     85  67  54 E5        30.05F
EMPORIA        MOSUNNY   79  71  76 N8        30.04F
LAWRENCE       CLOUDY    84  72  67 N3        30.02S
MANHATTAN      MOSUNNY   83  69  62 NE7       30.04F
MARYSVILLE     SUNNY     88  55  33 NE3       30.04S
OLATHE IND     CLOUDY    82  70  66 CALM      30.04S
OLATHE EXE     CLOUDY    82  70  66 NE5       30.03S
SALINA         SUNNY     87  68  52 NE7       30.04F
TOPEKA BILLARD   N/A     84  69  60 NE9       30.03F
TOPEKA FORBES  MOSUNNY   85  72  65 N7        30.03F
$$




USA.gov is the U.S. government's official web portal to all federal, state and local government web resources and services.